{"data":{"norad_id":61200,"intl_designator":"2024-171A","name":"STARLINK-11209 [DTC]","alt_names":[],"object_type":"PAYLOAD","status":"ACTIVE","operator":null,"country":"US","launch_date":"2024-09-20","launch_site_code":"AFWTR","launch_vehicle":null,"mission":null,"orbit_class":"UNKNOWN","rcs_meters":null,"size_class":null,"mass_kg":null,"dimensions":null,"purposes":["comms"],"wikipedia_slug":null,"has_3d_model":false,"image_url":null,"decayed_at":null,"tle_current":{"epoch":"2026-05-25T00:19:06.398400Z","epoch_age_seconds":67839,"freshness":"FRESH","line1":"1 61200U 24171A   26145.01326850  .00002451  00000+0  25082-4 0  9999","line2":"2 61200  53.1592 160.2102 0000694  67.6262 292.4829 15.69703051 97296","mean_motion":15.69703051,"eccentricity":6.94e-5,"inclination_deg":53.1592,"raan_deg":160.2102,"arg_perigee_deg":67.6262,"mean_anomaly_deg":292.4829,"bstar":2.5082e-5,"rev_number":9729,"period_min":91.737096330585,"perigee_km":359.27902674688,"apogee_km":360.21424499553,"semimajor_km":6737.8836358712,"source":"CELESTRAK","updated_at":"2026-05-25T13:38:19.357918Z"}}}